Location: Unspecified
(47.0088°N, 0.0000°E)
Time: 03:26:18
(UTC+00:00)

DEIMOS 2 - Visible Passes

Search period start: 05 April 2026 00:00
Search period end: 15 April 2026 00:00
Orbit: 587 x 588 km, 97.6° (Epoch: 29 March)

Date Brightness Start Highest point End Pass type
(mag) Time Alt. Az. Time Alt. Az. Time Alt. Az.
5 Apr ? 22:03:59 10° N 22:06:08 28° N 22:06:08 28° N visible
6 Apr ? 20:36:31 10° NE 20:36:56 12° NE 20:36:56 12° NE visible
6 Apr ? 22:11:07 10° N 22:13:25 29° NNW 22:13:25 29° NNW visible
7 Apr ? 20:43:20 10° NE 20:44:13 14° NE 20:44:13 14° NE visible
7 Apr ? 22:18:16 10° N 22:20:42 29° NNW 22:20:42 29° NNW visible
8 Apr ? 20:50:12 10° NE 20:51:30 17° NE 20:51:30 17° NE visible
8 Apr ? 22:25:26 10° N 22:27:59 27° NW 22:27:59 27° NW visible
9 Apr ? 20:57:07 10° NE 20:58:46 20° NE 20:58:46 20° NE visible
9 Apr ? 22:32:37 10° N 22:35:15 26° NW 22:35:15 26° NW visible
10 Apr ? 21:04:03 10° NNE 21:06:02 23° NE 21:06:02 23° NE visible
10 Apr ? 22:39:49 10° NNW 22:42:31 23° NW 22:42:31 23° NW visible
11 Apr ? 21:11:01 10° NNE 21:13:18 27° NE 21:13:18 27° NE visible
11 Apr ? 22:47:03 10° NNW 22:49:47 21° NW 22:49:47 21° NW visible
12 Apr ? 21:18:00 10° NNE 21:20:33 32° NE 21:20:33 32° NE visible
12 Apr ? 22:54:19 10° NNW 22:57:03 18° WNW 22:57:03 18° WNW visible
13 Apr ? 21:25:01 10° NNE 21:27:49 38° NE 21:27:49 38° NE visible
13 Apr ? 23:01:38 10° NNW 23:04:10 16° WNW 23:04:18 16° WNW visible
14 Apr ? 21:32:01 10° NNE 21:35:04 46° NE 21:35:04 46° NE visible
14 Apr ? 23:09:01 10° NNW 23:11:08 14° WNW 23:11:33 14° WNW visible
